User: anonymous   Login
Location: Unspecified
(0.0000°N, 0.0000°E)
Time: 05:23:04
(UTC+00:00)
Language:

deb r/b Ablestar - Orbit

View from above orbital plane
View from above orbital plane
View from above satellite
View from above satellite

Ground track
Ground track

The orbit data is extracted from the following two-line orbital elements,

1 00335U 61015DM  16207.76639545  .00000054  00000-0  67469-4 0  9990
2 00335  66.8441 349.7985 0045731 311.4845  48.2325 14.16551119815252
Epoch (UTC): 25 July 2016 18:23:36
Eccentricity: 0.0045731
inclination: 66.8441°
perigee height: 804 km
apogee height: 870 km
right ascension of ascending node: 349.7985°
argument of perigee: 311.4845°
revolutions per day: 14.16551119
mean anomaly at epoch: 48.2325°
orbit number at epoch: 81525

The dashed part of the orbit path shows where the satellite is in the earth's shadow,  

DLR